Regional Weather Roundup
Issued by NWS

Home | Current Version | Previous Version | Text Only | Print | Product List | Glossary On
Versions: 1 2 3 4 5 6 7 8 9 10 11 12 13 14 15 16 17 18 19 20 21 22 23 24 25 26 27 28 29 30 31 32 33 34 35 36 37 38 39 40 41 42 43 44 45 46 47 48 49 50
000
ASUS45 KPSR 240610
RWRAZ

ARIZONA REGIONAL HOURLY WEATHER ROUNDUP
NATIONAL WEATHER SERVICE PHOENIX AZ
1100 PM MST WED APR 23 2014

NOTE: FAIR INDICATES FEW OR NO CLOUDS BELOW 12,000 FEET WITH NO
SIGNIFICANT WEATHER AND/OR OBSTRUCTIONS TO VISIBILITY.

AZZ001>003-036-240700-
NORTHWEST ARIZONA

CITY           SKY/WX    TMP DP  RH WIND       PRES   REMARKS
BULLHEAD CITY  PTCLDY    68  12  11 E3        29.88S
KINGMAN        PTCLDY    50   6  16 SE7       29.99R
6HR MIN TEMP:  50; 6HR MAX TEMP:  71;

$$

AZZ004>008-015-016-018-240700-
NORTH CENTRAL ARIZONA

CITY           SKY/WX    TMP DP  RH WIND       PRES   REMARKS
GRAND CANYON   PTCLDY    28   9  44 CALM      30.09R
6HR MIN TEMP:  25; 6HR MAX TEMP:  58;

WILLIAMS       PTCLDY    34   9  35 SE6       30.16R WCI  29
PRESCOTT       PTCLDY    51   9  18 W9        30.02R
6HR MIN TEMP:  47; 6HR MAX TEMP:  70;

FLAGSTAFF      CLEAR     34  11  38 E5        30.08S WCI  30
6HR MIN TEMP:  31; 6HR MAX TEMP:  59;

PAYSON         CLEAR     54   9  16 CALM      30.05S
PAGE           CLEAR     57  10  15 VRB6      30.01R
6HR MIN TEMP:  57; 6HR MAX TEMP:  69;

$$

AZZ009>014-017-240700-
NORTHEAST ARIZONA

CITY           SKY/WX    TMP DP  RH WIND       PRES   REMARKS
WINSLOW        CLEAR     44  13  28 W5        30.02R
6HR MIN TEMP:  44; 6HR MAX TEMP:  71;

SAINT JOHNS    CLEAR     45   8  22 SW3       30.03R
6HR MIN TEMP:  45; 6HR MAX TEMP:  68;

WINDOW ROCK    CLEAR     38  11  32 CALM      30.07R
6HR MIN TEMP:  38; 6HR MAX TEMP:  60;

SHOW LOW       CLEAR     39  10  30 S7        30.10R WCI  34
$$

AZZ023-240700-
GREATER PHOENIX AREA

CITY           SKY/WX    TMP DP  RH WIND       PRES   REMARKS
PHOENIX        PTCLDY    74  13   9 W5        29.84R
6HR MIN TEMP:  74; 6HR MAX TEMP:  86;

BUCKEYE          N/A     64  10  12 N7        29.86R
LUKE AFB       NOT AVBL
6HR MIN TEMP:  70; 6HR MAX TEMP:  86;

DEER VALLEY    CLEAR     69  13  11 CALM      29.86R
6HR MIN TEMP:  69; 6HR MAX TEMP:  83;

SCOTTSDALE     CLEAR     71  18  13 S3        29.88R
6HR MIN TEMP:  71; 6HR MAX TEMP:  84;

MESA-GATEWAY   CLEAR     64  18  16 CALM      29.89R
$$

AZZ027-028-240700-
SOUTHWEST MARICOPA COUNTY AND PINAL COUNTY

CITY           SKY/WX    TMP DP  RH WIND       PRES   REMARKS
CASA GRANDE    PTCLDY    66  16  14 W7        29.88S
6HR MIN TEMP:  66; 6HR MAX TEMP:  82;

GILA BEND      CLEAR     70  12  11 SW5       29.87R
$$

AZZ503-504-507>509-240700-
SOUTHEAST ARIZONA

CITY           SKY/WX    TMP DP  RH WIND       PRES   REMARKS
TUCSON         CLEAR     65  11  12 S5        29.95R
6HR MIN TEMP:  65; 6HR MAX TEMP:  83;

DAVIS-MONTHAN  PTCLDY    63  15  15 S7        29.94R
6HR MIN TEMP:  63; 6HR MAX TEMP:  82;

NOGALES        CLEAR     56  21  25 E5        29.99R
6HR MIN TEMP:  56; 6HR MAX TEMP:  79;

SIERRA VISTA   PTCLDY    57  16  19 SW5       30.02S
DOUGLAS        CLEAR     57  13  17 N10       29.99R
6HR MIN TEMP:  57; 6HR MAX TEMP:  80;

SAFFORD        CLEAR     61   8  12 NW9       29.93R
6HR MIN TEMP:  61; 6HR MAX TEMP:  81;

$$

AZZ020-021-025-026-031-240700-
SOUTHWEST ARIZONA

CITY           SKY/WX    TMP DP  RH WIND       PRES   REMARKS
YUMA           CLEAR     71  31  22 W6        29.85R
6HR MIN TEMP:  71; 6HR MAX TEMP:  87;

$$

CAZ031-033-041-043-047-048-061-240700-
SOUTHERN CALIFORNIA

CITY           SKY/WX    TMP DP  RH WIND       PRES   REMARKS
DOWNTOWN L.A.  CLEAR     60  50  69 CALM      29.94S
6HR MIN TEMP:  60; 6HR MAX TEMP:  70;

L.A. AIRPORT   CLEAR     61  52  72 SW6       29.95S
6HR MIN TEMP:  61; 6HR MAX TEMP:  67;

SAN DIEGO      MOCLDY    63  52  67 CALM      29.97F
6HR MIN TEMP:  63; 6HR MAX TEMP:  68;

BURBANK        CLEAR     62  46  55 CALM      29.94S
6HR MIN TEMP:  62; 6HR MAX TEMP:  71;

ONTARIO        PTCLDY    62  37  39 W3        29.95S
6HR MIN TEMP:  61; 6HR MAX TEMP:  74;

RIVERSIDE      CLEAR     62  40  44 CALM      29.95S
6HR MIN TEMP:  62; 6HR MAX TEMP:  74;

PALM SPRINGS   CLEAR     74  44  34 NW13      29.89R
6HR MIN TEMP:  74; 6HR MAX TEMP:  86;

EL CENTRO NAS  CLEAR     71  36  27 SW7       29.84R
6HR MIN TEMP:  70; 6HR MAX TEMP:  86;

IMPERIAL       CLEAR     68  26  20 SW3       29.84R
6HR MIN TEMP:  67; 6HR MAX TEMP:  86;

BLYTHE         CLEAR     73  13  10 W5        29.85R
6HR MIN TEMP:  71; 6HR MAX TEMP:  87;

NEEDLES        CLEAR     72  10   9 NW8       29.87S
6HR MIN TEMP:  70; 6HR MAX TEMP:  85;

$$

NVZ020-UTZ003-240700-
SOUTHERN NEVADA-UTAH

CITY           SKY/WX    TMP DP  RH WIND       PRES   REMARKS
LAS VEGAS      MOCLDY    69  16  13 SW9       29.90R
6HR MIN TEMP:  69; 6HR MAX TEMP:  77;

SALT LAKE CITY PTCLDY    44  21  40 SE3       30.08R
6HR MIN TEMP:  42; 6HR MAX TEMP:  53;

$$

NMZ009-TXZ055-240700-
NEW MEXICO-WEST TEXAS

CITY           SKY/WX    TMP DP  RH WIND       PRES   REMARKS
ALBUQUERQUE    CLEAR     55  12  18 N16G24    29.97R
6HR MIN TEMP:  55; 6HR MAX TEMP:  70;

EL PASO        PTCLDY    73  14  10 NW18G30   29.89R
6HR MIN TEMP:  73; 6HR MAX TEMP:  84;

$$


........................KEY........................
SKY/WX - SKY CONDITION/WEATHER
TMP    - TEMPERATURE IN FAHRENHEIT
DP     - DEW POINT IN FAHRENHEIT
RH     - RELATIVE HUMIDITY IN PERCENT
WIND   - DIRECTION AND SPEED IN MILES PER HOUR (MPH)
VRB    - VARIABLE WIND DIRECTION
PRES   - MEAN SEA LEVEL PRESSURE IN INCHES OF MERCURY
         F - FALLING PRESSURE   R - RISING PRESSURE
         S - STEADY PRESSURE
VSB    - VISIBILITY IN MILES
HX     - HEAT INDEX IN FAHRENHEIT
WCI    - WIND CHILL INDEX IN FAHRENHEIT
TC     - TEMPERATURE IN CELSIUS WHICH IS ALSO KNOWN AS
         TEMPERATURE IN CENTIGRADE
AFB    - AIR FORCE BASE
         LUKE AFB IS LUKE AIR FORCE BASE
         DAVIS-MONTHAN IS DAVIS-MONTHAN AIR FORCE BASE
NAS    - NAVAL AIR STATION
         EL CENTRO NAS IS EL CENTRO NAVAL AIR STATION
N/A    - NOT AVAILABLE



USA.gov is the U.S. government's official web portal to all federal, state and local government web resources and services.